Showing default

JACKAL-02, 59134

Orbit data source: Space-Track

JACKAL-02, 59134 is a payload satellite owned by True Anomaly (US) in SSO that was launched on Mon, 04 Mar 2024 UTC via an FALCON 9 launch vehicle from the Air Force Western Test Range (AFWTR). Payload-class satellites include a variety of spacecraft equipped with specific instruments for various scientific and technological missions. These include communications satellites like Starlink; space stations such as the ISS; scientific satellites like the Hubble; Earth observation satellites from companies like Planet Labs, Umbra, and HawkEye 360; GPS; miniature CubeSats for education and research; and military/defense satellites.

Loading next visibility...
Identifier
59134, 2024-043AN
Orbit
SSO
Country
Flag of USUS
Related business
Manufacturer
True Anomaly
Mission
Operational Commercial Weather
Bus & Motor
JACKAL, Unknown motor
Mass
275 kg wet, 275 kg dry
Launch date (UTC)
2024-03-04 (1 year ago)
Launch vehicle
FALCON 9
Launch site
Air Force Western Test Range (AFWTR)
Object type
Payload
Rocket body
Debris
Shape & HBR
Box + 2 Pan, 0.5 m
Radar Cross Section
0.126 m², Large (>1 m²)

Expand to show TLE details & history
Last TLE update: 14 hours ago

TLE from 14 hours ago
0 JACKAL-02
1 59134U 24043AN  25241.89168606  .00018547  00000-0  55746-3 0  9998
2 59134  97.5222  13.8774 0009516 169.3308 190.8138 15.34413711 82776
Epoch: 2025-08-29T21:24Z
TLE epoch observation values (Epoch: 2025-08-29T21:24:01.675Z)
Latitude
-0.00006°
Longitude
74.5366°
Altitude
472.165 km
Speed
7.626 km/s
True Right ascension
00h 55m 30s
True Declination
0° 00' 00"
Sunlit
Object was in full shadow at epoch
Visualization orbit readout
Latitude
Unknown
Longitude
Unknown
Altitude
Unknown
Speed
Unknown
Apparent Right ascension
Unknown
Apparent Declination
Unknown
Sunlit
N/A
Visualization observer readout
Local Sidereal Time
02:56:21
Azimuth
Unknown
Elevation
Unknown
Doppler factor
Unknown
Orbital elements
Apogee altitude
466.121 km
Perigee altitude
453.107 km
Semi-major axis
6,837.751 km
Eccentricity
0.00095
Inclination
97.5222°
RAAN
13.8774°
Arg. of periapsis
169.3308°
True anomaly
190.79337°
Mean anomaly
190.8138°
Eccentric anomaly
190.80358°
Mean motion
3.8386 °/min
Orbital period
93.78 mins
BSTAR
0.00055746
Loading maneuver chart data...
Computing Atmospheric mass density...
Loading historical data...
Loading historical data...
Loading historical data...
Loading historical data...
Loading historical data...
Loading historical data...
Loading historical data...

Documentation

Showing up to 5 results
|